EW8255 Weather Reports


time (UTC)temp
F
wind
direction
speed
knots
gust
knots
rain 1hr
in
rain 24hr
in
rain mn
in
humidity
%
barometer
mb
20260504020041 52 340 1.7 9.6 0.00 0.00 0.00 88 1006.2
20260504014540 52 304 2.6 8.7 0.00 0.00 0.00 88 1006.3
20260504013044 51 311 1.7 8.7 0.00 0.00 0.00 89 1006.4
20260504011532 51 12 3.5 8.7 0.00 0.00 0.00 89 1006.5
20260504010028 51 275 4.3 11.3 0.00 0.00 0.00 89 1006.7
20260504004524 50 309 2.6 7.0 0.00 0.00 0.00 90 1006.7
20260504003037 50 336 2.6 7.8 0.00 0.00 0.00 90 1006.7
20260504001521 50 57 2.6 9.6 0.00 0.00 0.00 90 1006.8
20260504000020 49 126 3.5 10.4 0.00 0.00 0.00 90 1006.8
20260503234519 48 343 1.7 7.0 0.00 0.00 0.00 90 1007.0
20260503233018 49 20 1.7 7.8 0.00 0.00 0.00 90 1007.0
20260503231520 48 314 4.3 10.4 0.00 0.00 0.00 90 1007.2
20260503230016 48 287 2.6 8.7 0.00 0.00 0.00 89 1007.2
20260503224517 48 8 2.6 7.0 0.00 0.00 0.00 89 1007.2
20260503223018 48 301 1.7 7.8 0.00 0.00 0.00 89 1007.3
20260503221513 47 338 3.5 9.6 0.00 0.00 0.00 90 1007.3
20260503220011 47 307 2.6 6.1 0.00 0.00 0.00 91 1007.2
20260503214511 46 279 3.5 7.0 0.00 0.00 0.00 91 1007.1
20260503213007 46 344 1.7 6.1 0.00 0.00 0.00 91 1007.2
20260503211504 46 310 1.7 6.1 0.00 0.00 0.00 90 1007.1
20260503210002 47 323 2.6 7.0 0.00 0.00 0.00 90 1007.1
20260503204604 47 327 1.7 7.0 0.00 0.00 0.00 89 1007.2
20260503203059 47 21 0.9 6.1 0.00 0.00 0.00 88 1007.2
20260503201554 47 319 1.7 6.1 0.00 0.00 0.00 88 1007.4
20260503200053 47 1 1.7 6.1 0.00 0.00 0.00 87 1007.5
20260503194550 47 339 0.9 4.3 0.00 0.00 0.00 87 1007.5
20260503193049 47 41 0.9 6.1 0.00 0.00 0.00 86 1007.5
20260503191546 48 4 1.7 6.1 0.00 0.00 0.00 86 1007.5
20260503190046 48 13 1.7 7.8 0.00 0.00 0.00 85 1007.5
20260503184547 48 323 1.7 4.3 0.00 0.00 0.00 86 1007.4
20260503183041 49 328 1.7 7.0 0.00 0.00 0.00 85 1007.5
20260503181539 49 357 2.6 7.0 0.00 0.00 0.00 85 1007.7
20260503180045 49 338 1.7 6.1 0.00 0.00 0.00 85 1007.7
20260503174536 49 314 2.6 6.1 0.00 0.00 0.00 85 1007.8
20260503173042 49 290 1.7 6.1 0.00 0.00 0.00 85 1007.9
20260503171535 49 286 0.9 5.2 0.00 0.00 0.00 85 1007.8
20260503081548 54 30 1.7 5.2 0.00 0.00 0.00 73 1008.5
20260503071550 56 333 1.7 7.8 0.00 0.00 0.00 75 1007.7
20260503060106 57 327 1.7 6.1 0.00 0.00 0.00 76 1007.6
20260503054540 58 327 1.7 5.2 0.00 0.00 0.00 76 1007.6
20260503053037 57 347 0.9 5.2 0.00 0.00 0.00 76 1007.5
20260503051535 57 321 2.6 7.0 0.00 0.00 0.00 77 1007.8
20260503050035 57 264 1.7 5.2 0.00 0.00 0.00 77 1007.7
20260503044535 58 23 1.7 5.2 0.00 0.00 0.00 75 1007.6
20260503043041 57 302 1.7 8.7 0.00 0.00 0.00 78 1007.6
20260503041531 56 324 0.9 6.1 0.00 0.00 0.00 83 1007.5
20260503040028 56 248 0.9 6.1 0.00 0.00 0.00 86 1007.7
20260503034527 55 4 0.9 6.1 0.00 0.00 0.00 86 1007.6
20260503033033 55 354 1.7 8.7 0.00 0.00 0.00 86 1007.9
20260503031525 55 325 1.7 7.0 0.00 0.00 0.00 86 1008.0
20260503030025 55 16 3.5 6.1 0.00 0.00 0.00 85 1008.0
20260503024527 55 290 2.6 7.8 0.00 0.00 0.00 88 1007.9
20260503023024 54 341 1.7 5.2 0.00 0.00 0.00 91 1008.0
20260503021539 53 299 1.7 5.2 0.00 0.00 0.00 93 1008.4